Flag for China Weather past 2 weeks in Hohhot, Inner Mongolia, China

Now
16 °F

Ice fog.


Feels Like: 10 °F
Forecast: 3 / 21 °F
Wind: 3 mph from East

Location: Hohhot Airport

Current Time: Jan 25, 2015 at 10:31:35 PM

Latest Report: Jan 25, 2015 at 10:00 PM


Visibility: 2 mi

Pressure: 30.18 "Hg

Humidity: 93%

Dew point: 14 °F

Location of HohhotLocation

Historic Weather in Hohhot — Graph

°F

Hohhot temperature yesterday

Maximum temperature yesterday: 36 °F (at 12:00 PM)
Minimum temperature yesterday: 23 °F (at 1:00 AM)
Average temperature yesterday: 28 °F

Past Weeks' High & Low Weather Summary

 TemperatureHumidityPressure
High41 °F (Jan 12, 1:00 PM)100% (Jan 13, 10:00 PM)30.42 "Hg (Jan 13, 10:00 PM)
Low0 °F (Jan 19, 6:00 AM)24% (Jan 12, 1:00 PM)29.95 "Hg (Jan 23, 2:00 PM)
Average19 °F69%30.19 "Hg
* Reported Jan 10 9:00 PM — Jan 25 9:00 PM, Hohhot, Weather by CustomWeather, © 2014

Note: Actual official high and low records may vary slightly from our data, if they occured in-between our weather recording intervals... More about our weather records

Advertising

Hohhot weather history for previous 24 hours

 ConditionsComfort  
Time TempWeatherWind HumidityBarometerVisibility
9:00 PM
Jan 25
16 °FIce fog.1 mph93%30.18 "Hg2 mi
8:00 PM21 °FIce fog.3 mph93%30.15 "Hg2 mi
7:00 PM23 °FIce fog.1 mph86%30.12 "Hg2 mi
6:00 PM25 °FIce fog.3 mph86%30.09 "Hg2 mi
5:00 PM27 °FIce fog.3 mph80%30.09 "Hg2 mi
4:00 PM30 °FIce fog.1 mph75%30.09 "Hg1 mi
3:00 PM28 °FIce fog.1 mph86%30.09 "Hg1 mi
2:00 PM27 °FIce fog.1 mph93%30.09 "Hg1 mi
1:00 PM27 °FIce fog.1 mph93%30.15 "Hg1 mi
12:00 PM25 °FLight snow. Ice fog.6 mph100%30.18 "Hg1 mi
11:00 AM25 °FLight snow. Ice fog.6 mph100%30.18 "Hg1 mi
10:00 AM25 °FLight snow. Ice fog.6 mph93%30.15 "Hg1 mi
9:00 AM23 °FLight snow. Ice fog.3 mph100%30.15 "Hg1 mi
8:00 AM23 °FLight snow. Ice fog.3 mph93%30.15 "Hg1 mi
7:00 AM23 °FIce fog.3 mph100%30.12 "Hg1 mi
6:00 AM25 °FIce fog.3 mph93%30.09 "Hg2 mi
5:00 AM25 °FIce fog.3 mph93%30.09 "Hg2 mi
4:00 AM25 °FIce fog.3 mph93%30.09 "Hg2 mi
3:00 AM27 °FIce fog.1 mph93%30.09 "Hg2 mi
2:00 AM27 °FIce fog.1 mph93%30.09 "Hg2 mi
1:00 AM27 °FIce fog.1 mph86%30.09 "Hg2 mi
12:00 AM27 °FIce fog.1 mph86%30.09 "Hg2 mi
11:00 PM
Jan 24
27 °FIce fog.No wind86%30.12 "Hg2 mi
10:00 PM28 °FIce fog.1 mph86%30.09 "Hg2 mi
Weather by CustomWeather, © 2014

See weather overviewHow to use our weather pages